Miscellaneous Local Product
Issued by NWS Hastings, NE

Home | Current Version | Previous Version | Graphics & Text | Print | Product List | Glossary On
Versions: 1 2 3 4 5 6 7 8 9 10 11 12 13 14 15 16 17 18 19 20 21 22 23 24 25 26 27 28 29 30 31 32 33 34 35 36 37 38 39 40 41 42 43 44 45 46 47 48 49 50
000
AXUS43 KGID 010702
MISGRI

GID CWA HOURLY WEATHER ROUNDUP
NATIONAL WEATHER SERVICE HASTINGS NE
200 AM CDT WED OCT 01 2014

NOTE: "FAIR" INDICATES FEW OR NO CLOUDS BELOW 12,000 FEET WITH NO
SIGNIFICANT WEATHER AND/OR OBSTRUCTIONS TO VISIBILITY.

...SOUTH CENTRAL NEBRASKA...

CITY           SKY/WX    TMP DP  RH WIND       PRES   REMARKS
GRAND ISLAND   MOCLDY    62  60  93 S5        29.73S
HASTINGS       PTCLDY    62  59  90 E3        29.72F
KEARNEY        CLOUDY    63  61  94 SE6       29.73F VSB 1/2
ORD            CLOUDY    62  60  93 S9        29.71F
YORK           MOCLDY    63  61  94 SE7       29.72S
AURORA         MOCLDY    60  60 100 CALM      29.72S FOG
LEXINGTON      FOG       59  58  97 S3        29.73F VSB 1/4
HOLDREGE       FOG       62  60  95 CALM      29.73F VSB 1/4
HEBRON         MOCLDY    64  62  92 E5        29.71S FOG

...NEBRASKA PANHANDLE...

CITY           SKY/WX    TMP DP  RH WIND       PRES   REMARKS
CHADRON        PTCLDY    49  47  93 CALM      29.76R
ALLIANCE       CLOUDY    52  46  80 SW7       29.78R
SCOTTSBLUFF    MOCLDY    52  46  80 N3        29.80R
SIDNEY         PTCLDY    54  42  64 W7        29.83S

...WESTERN AND NORTH CENTRAL NEBRASKA...

CITY           SKY/WX    TMP DP  RH WIND       PRES   REMARKS
VALENTINE      CLOUDY    51  46  83 NW5       29.71S
AINSWORTH      CLOUDY    57  47  67 S5        29.71S
ONEILL         CLOUDY    62  62  98 S8        29.73S
BROKEN BOW     CLOUDY    54  52  93 CALM      29.72F
IMPERIAL       MOCLDY    55  46  71 N9        29.77F
NORTH PLATTE   CLOUDY    58  50  75 NW8       29.77R
MCCOOK         CLOUDY    59  55  87 CALM      29.74F

...EASTERN NEBRASKA...

CITY           SKY/WX    TMP DP  RH WIND       PRES   REMARKS
NORFOLK        CLOUDY    63  62  97 SE9       29.74S
SO SIOUX CITY  CLOUDY    62  61  96 SE7       29.74F
TEKAMAH        RAIN      66  63  90 S16       29.76F FOG
COLUMBUS       CLOUDY    63  61  94 SE5       29.75R
ALBION         CLOUDY    62  60  93 S9        29.73S FOG
OMAHA EPPLEY   TSTM      65  62  90 S9        29.78R
OFFUTT AFB     TSTM      63  63 100 SE6       29.78R FOG
MILLARD        LGT RAIN  65  63  94 SE5       29.77R
LINCOLN        TSTM      61  59  93 SE6       29.76S
NEBRASKA CITY  LGT RAIN  64  64 100 E5        29.73F
BEATRICE       CLOUDY    64  63  97 NE9       29.74R
FALLS CITY     CLOUDY    65  63  93 E10       29.72F

...NORTHERN KANSAS...

CITY           SKY/WX    TMP DP  RH WIND       PRES   REMARKS
GOODLAND       MOCLDY    56  47  71 W10       29.79F
HILL CITY      CLOUDY    64  63  96 CALM      29.73S FOG
NORTON         CLOUDY    63  59  88 E5        29.73R FOG
PHILLIPSBURG   CLOUDY    66  66 100 CALM      29.71F FOG
SMITH CENTER   FOG       61  61 100 NE6       29.70F VSB 1/4
BELOIT         CLEAR     63  63 100 N5        29.67S
HAYS           MOCLDY    57  52  82 CALM      29.70S VSB 1
RUSSELL        CLEAR     63  60  90 SW9       29.68S
CONCORDIA      MOCLDY    65  64  97 SE10      29.67F
SALINA         LGT RAIN  69  65  86 SE15      29.68F
TOPEKA         CLOUDY    75  62  64 S17G32    29.71F



USA.gov is the U.S. government's official web portal to all federal, state and local government web resources and services.